Regional Weather Roundup
Issued by NWS

Home | Current Version | Previous Version | Text Only | Print | Product List | Glossary On
Versions: 1 2 3 4 5 6 7 8 9 10 11 12 13 14 15 16 17 18 19 20 21 22 23 24 25 26 27 28 29 30 31 32 33 34 35 36 37 38 39 40 41 42 43 44 45 46 47 48 49 50
040
ASUS44 KJAN 281510
RWRMS

MISSISSIPPI HOURLY WEATHER ROUNDUP
NATIONAL WEATHER SERVICE JACKSON MS
1000 AM CDT MON JUL 28 2014

NOTE: "FAIR: INDICATES FEW OR NO CLOUDS BELOW 12,000 FEET WITH NO
SIGNIFICANT WEATHER AND/OR OBSTRUCTIONS TO VISIBILITY.

MSZ001>002-007>008-010>013-018>021-025>028-034>036-281600-
NORTHWEST MISSISSIPPI

CITY           SKY/WX    TMP DP  RH WIND       PRES   REMARKS
CLARKSDALE     FAIR      81  64  57 N6        30.10S
CLEVELAND      FAIR      81  69  65 NE9       30.08S
GREENWOOD      MOSUNNY   82  69  64 NE9       30.06S
GREENVILLE     MOSUNNY   83  68  60 N8        30.08S
GRENADA        FAIR      82  63  51 N5        30.07S
OLIVE BRANCH   SUNNY     77  63  61 N9        30.10R
OXFORD         FAIR      77  63  61 N6        30.10R
TUNICA         SUNNY     79  63  57 N8        30.10S
$$

MSZ003>006-009-014>017-022>024-029>033-037>039-281600-
NORTHEAST MISSISSIPPI

CITY           SKY/WX    TMP DP  RH WIND       PRES   REMARKS
BELMONT        FAIR      78  64  63 N3        30.05S
COLUMBUS AFB   MOSUNNY   83  68  58 N12       30.03R
CORINTH        FAIR      77  63  61 NW6       30.06S
GOLDN TRIANGLE MOSUNNY   84  72  65 N14       30.04R
STARKVILLE     FAIR      81  72  74 N6        30.04S
TUPELO         SUNNY     80  63  55 N10       30.05S
$$

MSZ040-058-281600-
CENTRAL MISSISSIPPI

CITY           SKY/WX    TMP DP  RH WIND       PRES   REMARKS
JACKSON INTL   CLOUDY    83  75  77 NW8       30.06S HX  90
JACKSON HAWKNS CLOUDY    82  73  74 NW8       30.07S
MERIDIAN KEY   CLOUDY    85  75  72 W8        30.03S HX  93
MERIDIAN NAS   PTSUNNY   86  75  69 NW15      30.03S HX  95
RAYMOND        PTSUNNY   81  75  83 W9        30.07S
VICKSBURG      CLOUDY    82  74  76 N6        30.07F
$$

MSZ059>079-281600-
SOUTH MISSISSIPPI

CITY           SKY/WX    TMP DP  RH WIND       PRES   REMARKS
BROOKHAVEN     FAIR      82  77  83 W12       30.10S HAZE    HX  91
COLUMBIA       FAIR      88  79  74 VRB7G13   30.07R HX 102
HATTIESBURG    SUNNY     88  77  69 W10       30.07S HX 100
MCCOMB         PTSUNNY   85  76  74 NW12      30.09F HX  94
NATCHEZ        CLOUDY    81  75  83 W6        30.10S
PINE BELT      MOSUNNY   88  75  66 W9G16     30.08S HX  97
$$

MSZ080>082-281600-
COASTAL MISSISSIPPI

CITY           SKY/WX    TMP DP  RH WIND       PRES   REMARKS
BAY ST LOUIS   MOSUNNY  N/A N/A N/A NW12G17   30.08
BILOXI         MOSUNNY   88  77  69 VRB2      30.07S HX 100
PASCAGOULA     SUNNY     88  76  67 NW8       30.06S HX  99
GULFPORT       SUNNY     91  76  61 W9        30.06S HX 103
$$



USA.gov is the U.S. government's official web portal to all federal, state and local government web resources and services.